Lid_Strength_Index
12 15 16 14 12 13 13 14 14 14 11 12 12 10 9 8 11 11 10 10 9 8 7 6 6 7 7 7 7 7 5 5 5 7 6 6 5 8 9 9 8 8 8 10
15 16 14 12 12 12 13 14 15 13 12 11 12 12 11 10 9 9 9 10 9 8 8 7 6 7 8 8 7 7 6 6 5 5 5 6 8 9 8 8 9 9 9 9
15 15 12 13 13 14 14 14 14 14 13 12 13 13 13 11 9 9 9 8 8 8 8 7 7 8 8 8 8 7 8 8 6 6 8 9 8 9 9 9 8 9 10 9
13 12 14 14 14 13 16 12 12 14 15 17 13 19 14 13 11 11 9 9 8 8 7 7 7 8 8 8 8 8 8 8 8 9 7 6 6 6 7 7 8 8 9 10
14 14 13 14 14 12 15 11 12 13 15 17 16 17 16 15 14 12 11 10 8 7 7 7 7 7 7 7 9 8 8 9 9 10 7 7 7 7 9 9 8 9 9 9
13 12 12 13 12 11 11 12 12 13 15 19 15 16 17 15 15 14 12 12 10 9 8 7 7 7 7 7 9 9 11 11 11 11 10 9 9 10 10 10 9 9 9 9
14 14 13 11 14 12 11 14 18 20 20 19 17 17 14 13 13 13 12 12 12 10 9 8 8 8 8 8 9 10 11 12 11 11 11 10 10 10 9 10 9 10 10 10
17 19 13 12 13 14 13 13 17 22 22 19 17 18 15 12 10 10 13 13 13 11 9 9 9 8 8 8 9 9 11 11 12 11 11 10 10 10 9 10 10 10 9 9
17 17 14 12 11 11 14 14 12 16 23 19 18 17 14 13 13 13 14 14 13 13 13 11 10 9 9 9 9 9 10 10 12 11 11 11 11 11 10 11 11 11 11 11
14 17 14 12 11 11 11 11 14 16 23 23 19 19 18 16 13 13 14 14 13 13 12 12 12 11 10 10 9 9 10 11 11 12 11 11 11 10 11 12 12 12 11 11
13 15 16 13 13 13 14 13 13 13 16 18 21 19 15 13 14 13 13 14 14 12 12 12 11 11 11 10 10 10 10 10 11 11 12 12 12 11 12 12 12 12 12 12
12 14 18 16 14 13 13 13 11 15 17 17 17 19 14 14 13 13 13 13 14 12 12 12 11 11 11 10 10 10 10 10 10 10 11 12 12 12 12 13 13 12 12 11
11 15 23 18 15 14 14 13 11 11 14 15 17 17 13 14 14 13 13 13 13 13 13 12 11 11 11 11 11 11 11 11 11 11 12 12 12 12 12 12 12 11 11 11
8 13 14 17 16 15 15 14 13 12 15 15 15 16 15 14 13 13 13 13 14 14 12 13 12 11 12 12 12 12 12 11 11 11 11 12 12 11 11 11 11 11 11 11
10 17 14 13 15 14 14 13 13 14 12 15 14 16 13 13 13 12 12 13 14 14 13 13 12 12 12 12 12 12 11 11 10 10 11 11 11 11 11 11 11 11 11 11
12 17 15 19 13 14 15 14 13 12 11 12 13 15 12 11 13 14 13 12 13 13 12 13 12 12 12 12 12 11 12 12 11 11 12 11 11 11 11 11 12 12 12 13
13 18 20 19 14 14 18 15 14 13 11 11 14 12 13 13 12 13 12 12 12 12 12 12 12 12 11 11 11 11 11 11 11 11 11 11 11 12 12 12 12 13 13 14
12 14 20 24 20 20 14 12 12 13 12 11 11 12 10 10 11 11 11 11 11 12 11 11 12 12 11 11 11 11 11 11 11 12 12 12 12 13 13 13 13 13 13 14
11 14 18 17 20 18 15 14 14 15 14 12 12 11 10 12 12 11 11 11 10 11 10 10 10 11 12 11 11 11 12 12 13 13 13 13 13 13 14 13 14 14 14 15
11 11 14 24 20 22 15 13 11 11 16 11 11 11 10 12 13 11 12 11 10 11 11 11 11 11 11 12 12 12 13 13 14 14 14 13 13 13 14 14 15 15 14 15
15 14 15 21 24 19 13 12 11 17 15 11 11 10 11 11 10 10 11 11 9 10 11 11 11 11 11 12 12 13 13 14 14 14 14 14 14 14 14 15 15 15 15 15
15 16 16 19 20 20 12 12 13 11 11 11 12 11 10 9 11 11 10 11 10 10 11 11 12 12 12 12 12 14 14 14 15 15 14 15 15 15 15 15 15 14 14 14
16 13 16 14 14 11 12 11 10 10 11 11 11 11 11 11 11 11 11 11 11 11 11 12 12 13 13 13 13 14 14 14 15 15 16 16 16 16 15 14 14 14 14 15
13 12 14 13 12 11 10 10 10 9 10 10 10 10 10 11 11 12 11 11 12 12 12 13 13 14 15 14 14 14 14 15 15 16 17 17 16 16 15 14 14 14 15 15
13 12 15 15 12 12 11 10 10 10 10 10 10 10 10 11 12 12 12 12 12 13 13 12 12 13 14 14 14 14 14 15 15 15 15 15 15 14 14 14 14 15 15 15
12 12 12 12 11 10 10 9 9 10 9 10 11 11 11 11 12 12 13 12 12 13 13 13 13 13 13 13 14 14 14 14 15 15 15 14 14 14 14 14 15 13 13 13